Location: Olsztyn
(53.7767°N, 20.4765°E)
Time: 09:26:41
(UTC+01:00)

Vanguard 1 - All Passes

Search period start: 28 January 2022 00:00
Search period end: 07 February 2022 00:00
Orbit: 652 x 3830 km, 34.2° (Epoch: 27 January)

Date Brightness Start Highest point End Pass type
(mag) Time Alt. Az. Time Alt. Az. Time Alt. Az.
28 Jan - 09:57:54 10° SSW 10:01:17 13° S 10:04:06 10° SSE daylight
29 Jan - 07:58:31 10° S 08:02:18 12° SSE 08:05:29 10° SE daylight
29 Jan - 10:18:03 10° SW 10:21:47 14° S 10:24:49 10° SSE daylight
30 Jan - 08:17:29 10° SSW 08:22:55 15° S 08:27:06 10° SE daylight
30 Jan - 10:38:35 10° SW 10:42:14 14° SSW 10:45:13 10° SSE daylight
31 Jan - 06:20:09 10° S 06:23:21 11° SSE 06:26:11 10° SE visible
31 Jan - 08:37:11 10° SSW 08:43:30 17° S 08:48:09 10° SE daylight
31 Jan - 10:59:26 10° SW 11:02:38 13° SSW 11:05:19 10° S daylight
01 Feb - 06:37:32 10° S 06:43:59 15° SSE 06:49:02 10° SE visible
01 Feb - 08:57:16 10° SW 09:04:03 19° S 09:08:55 10° SE daylight
01 Feb - 11:20:45 10° SW 11:22:58 11° SSW 11:24:56 10° S daylight
02 Feb - 06:56:24 10° SSW 07:04:37 18° SSE 07:10:36 10° SE daylight
02 Feb - 09:17:40 10° SW 09:24:33 19° S 09:29:28 10° SE daylight
03 Feb - 04:59:23 10° S 05:04:31 12° SSE 05:08:55 10° SE visible
03 Feb - 07:15:56 10° SSW 07:25:15 21° S 07:31:42 10° SE daylight
03 Feb - 09:38:18 10° SW 09:45:01 19° SSW 09:49:50 10° SSE daylight
04 Feb - 05:16:30 10° S 05:25:08 16° SSE 05:31:48 10° ESE visible
04 Feb - 07:35:53 10° SW 07:45:52 23° S 07:52:32 10° SE daylight
04 Feb - 09:59:08 10° WSW 10:05:25 18° SSW 10:10:00 10° SSE daylight
05 Feb - 05:35:01 10° SSW 05:45:47 20° SSE 05:53:31 10° ESE visible
05 Feb - 07:56:09 10° SW 08:06:26 25° S 08:13:11 10° SE daylight
05 Feb - 10:20:14 10° WSW 10:25:44 16° SSW 10:29:54 10° S daylight
06 Feb - 03:39:30 10° SSE 03:45:12 12° SE 03:50:12 10° SE visible
06 Feb - 05:54:17 10° SSW 06:06:25 24° SSE 06:14:45 10° ESE visible
06 Feb - 08:16:40 10° SW 08:26:58 25° S 08:33:41 10° SE daylight
06 Feb - 10:41:42 10° WSW 10:45:58 14° SSW 10:49:24 10° S daylight
